Year,Month,Day,Hour,Minute,Value (Times are PST for insolation in W/m^2)
2014,09,02,00,00,0.00
2014,09,02,00,01,0.00
2014,09,02,00,02,0.00
2014,09,02,00,03,0.00
2014,09,02,00,04,0.00
2014,09,02,00,05,0.00
2014,09,02,00,06,0.00
2014,09,02,00,07,0.00
2014,09,02,00,08,0.00
2014,09,02,00,09,0.00
2014,09,02,00,10,0.00
2014,09,02,00,11,0.00
2014,09,02,00,12,0.00
2014,09,02,00,13,0.00
2014,09,02,00,14,0.00
2014,09,02,00,15,0.00
2014,09,02,00,16,0.00
2014,09,02,00,17,0.00
2014,09,02,00,18,0.00
2014,09,02,00,19,0.00
2014,09,02,00,20,0.00
2014,09,02,00,21,0.00
2014,09,02,00,22,0.00
2014,09,02,00,23,0.00
2014,09,02,00,24,0.00
2014,09,02,00,25,0.00
2014,09,02,00,26,0.00
2014,09,02,00,27,0.00
2014,09,02,00,28,0.00
2014,09,02,00,29,0.00
2014,09,02,00,30,0.00
2014,09,02,00,31,0.00
2014,09,02,00,32,0.00
2014,09,02,00,33,0.00
2014,09,02,00,34,0.00
2014,09,02,00,35,0.00
2014,09,02,00,36,0.00
2014,09,02,00,37,0.00
2014,09,02,00,38,0.00
2014,09,02,00,39,0.00
2014,09,02,00,40,0.00
2014,09,02,00,41,0.00
2014,09,02,00,42,0.00
2014,09,02,00,43,0.00
2014,09,02,00,44,0.00
2014,09,02,00,45,0.00
2014,09,02,00,46,0.00
2014,09,02,00,47,0.00
2014,09,02,00,48,0.00
2014,09,02,00,49,0.00
2014,09,02,00,50,0.00
2014,09,02,00,51,0.00
2014,09,02,00,52,0.00
2014,09,02,00,53,0.00
2014,09,02,00,54,0.00
2014,09,02,00,55,0.00
2014,09,02,00,56,0.00
2014,09,02,00,57,0.00
2014,09,02,00,58,0.00
2014,09,02,00,59,0.00
2014,09,02,01,00,0.00
2014,09,02,01,01,0.00
2014,09,02,01,02,0.00
2014,09,02,01,03,0.00
2014,09,02,01,04,0.00
2014,09,02,01,05,0.00
2014,09,02,01,06,0.00
2014,09,02,01,07,0.00
2014,09,02,01,08,0.00
2014,09,02,01,09,0.00
2014,09,02,01,10,0.00
2014,09,02,01,11,0.00
2014,09,02,01,12,0.00
2014,09,02,01,13,0.00
2014,09,02,01,14,0.00
2014,09,02,01,15,0.00
2014,09,02,01,16,0.00
2014,09,02,01,17,0.00
2014,09,02,01,18,0.00
2014,09,02,01,19,0.00
2014,09,02,01,20,0.00
2014,09,02,01,21,0.00
2014,09,02,01,22,0.00
2014,09,02,01,23,0.00
2014,09,02,01,24,0.00
2014,09,02,01,25,0.00
2014,09,02,01,26,0.00
2014,09,02,01,27,0.00
2014,09,02,01,28,0.00
2014,09,02,01,29,0.00
2014,09,02,01,30,0.00
2014,09,02,01,31,0.00
2014,09,02,01,32,0.00
2014,09,02,01,33,0.00
2014,09,02,01,34,0.00
2014,09,02,01,35,0.00
2014,09,02,01,36,0.00
2014,09,02,01,37,0.00
2014,09,02,01,38,0.00
2014,09,02,01,39,0.00
2014,09,02,01,40,0.00
2014,09,02,01,41,0.00
2014,09,02,01,42,0.00
2014,09,02,01,43,0.00
2014,09,02,01,44,0.00
2014,09,02,01,45,0.00
2014,09,02,01,46,0.00
2014,09,02,01,47,0.00
2014,09,02,01,48,0.00
2014,09,02,01,49,0.00
2014,09,02,01,50,0.00
2014,09,02,01,51,0.00
2014,09,02,01,52,0.00
2014,09,02,01,53,0.00
2014,09,02,01,54,0.00
2014,09,02,01,55,0.00
2014,09,02,01,56,0.00
2014,09,02,01,57,0.00
2014,09,02,01,58,0.00
2014,09,02,01,59,0.00
2014,09,02,02,00,0.00
2014,09,02,02,01,0.00
2014,09,02,02,02,0.00
2014,09,02,02,03,0.00
2014,09,02,02,04,0.00
2014,09,02,02,05,0.00
2014,09,02,02,06,0.00
2014,09,02,02,07,0.00
2014,09,02,02,08,0.00
2014,09,02,02,09,0.00
2014,09,02,02,10,0.00
2014,09,02,02,11,0.00
2014,09,02,02,12,0.00
2014,09,02,02,13,0.00
2014,09,02,02,14,0.00
2014,09,02,02,15,0.00
2014,09,02,02,16,0.00
2014,09,02,02,17,0.00
2014,09,02,02,18,0.00
2014,09,02,02,19,0.00
2014,09,02,02,20,0.00
2014,09,02,02,21,0.00
2014,09,02,02,22,0.00
2014,09,02,02,23,0.00
2014,09,02,02,24,0.00
2014,09,02,02,25,0.00
2014,09,02,02,26,0.00
2014,09,02,02,27,0.00
2014,09,02,02,28,0.00
2014,09,02,02,29,0.00
2014,09,02,02,30,0.00
2014,09,02,02,31,0.00
2014,09,02,02,32,0.00
2014,09,02,02,33,0.00
2014,09,02,02,34,0.00
2014,09,02,02,35,0.00
2014,09,02,02,36,0.00
2014,09,02,02,37,0.00
2014,09,02,02,38,0.00
2014,09,02,02,39,0.00
2014,09,02,02,40,0.00
2014,09,02,02,41,0.00
2014,09,02,02,42,0.00
2014,09,02,02,43,0.00
2014,09,02,02,44,0.00
2014,09,02,02,45,0.00
2014,09,02,02,46,0.00
2014,09,02,02,47,0.00
2014,09,02,02,48,0.00
2014,09,02,02,49,0.00
2014,09,02,02,50,0.00
2014,09,02,02,51,0.00
2014,09,02,02,52,0.00
2014,09,02,02,53,0.00
2014,09,02,02,54,0.00
2014,09,02,02,55,0.00
2014,09,02,02,56,0.00
2014,09,02,02,57,0.00
2014,09,02,02,58,0.00
2014,09,02,02,59,0.00
2014,09,02,03,00,0.00
2014,09,02,03,01,0.00
2014,09,02,03,02,0.00
2014,09,02,03,03,0.00
2014,09,02,03,04,0.00
2014,09,02,03,05,0.00
2014,09,02,03,06,0.00
2014,09,02,03,07,0.00
2014,09,02,03,08,0.00
2014,09,02,03,09,0.00
2014,09,02,03,10,0.00
2014,09,02,03,11,0.00
2014,09,02,03,12,0.00
2014,09,02,03,13,0.00
2014,09,02,03,14,0.00
2014,09,02,03,15,0.00
2014,09,02,03,16,0.00
2014,09,02,03,17,0.00
2014,09,02,03,18,0.00
2014,09,02,03,19,0.00
2014,09,02,03,20,0.00
2014,09,02,03,21,0.00
2014,09,02,03,22,0.00
2014,09,02,03,23,0.00
2014,09,02,03,24,0.00
2014,09,02,03,25,0.00
2014,09,02,03,26,0.00
2014,09,02,03,27,0.00
2014,09,02,03,28,0.00
2014,09,02,03,29,0.00
2014,09,02,03,30,0.00
2014,09,02,03,31,0.00
2014,09,02,03,32,0.00
2014,09,02,03,33,0.00
2014,09,02,03,34,0.00
2014,09,02,03,35,0.00
2014,09,02,03,36,0.00
2014,09,02,03,37,0.00
2014,09,02,03,38,0.00
2014,09,02,03,39,0.00
2014,09,02,03,40,0.00
2014,09,02,03,41,0.00
2014,09,02,03,42,0.00
2014,09,02,03,43,0.00
2014,09,02,03,44,0.00
2014,09,02,03,45,0.00
2014,09,02,03,46,0.00
2014,09,02,03,47,0.00
2014,09,02,03,48,0.00
2014,09,02,03,49,0.00
2014,09,02,03,50,0.00
2014,09,02,03,51,0.00
2014,09,02,03,52,0.00
2014,09,02,03,53,0.00
2014,09,02,03,54,0.00
2014,09,02,03,55,0.00
2014,09,02,03,56,0.00
2014,09,02,03,57,0.00
2014,09,02,03,58,0.00
2014,09,02,03,59,0.00
2014,09,02,04,00,0.00
2014,09,02,04,01,0.00
2014,09,02,04,02,0.00
2014,09,02,04,03,0.00
2014,09,02,04,04,0.00
2014,09,02,04,05,0.00
2014,09,02,04,06,0.00
2014,09,02,04,07,0.00
2014,09,02,04,08,0.00
2014,09,02,04,09,0.00
2014,09,02,04,10,0.00
2014,09,02,04,11,0.00
2014,09,02,04,12,0.00
2014,09,02,04,13,0.00
2014,09,02,04,14,0.00
2014,09,02,04,15,0.00
2014,09,02,04,16,0.00
2014,09,02,04,17,0.00
2014,09,02,04,18,0.00
2014,09,02,04,19,0.00
2014,09,02,04,20,0.00
2014,09,02,04,21,0.00
2014,09,02,04,22,0.00
2014,09,02,04,23,0.00
2014,09,02,04,24,0.00
2014,09,02,04,25,0.00
2014,09,02,04,26,0.00
2014,09,02,04,27,0.00
2014,09,02,04,28,0.00
2014,09,02,04,29,0.00
2014,09,02,04,30,0.00
2014,09,02,04,31,0.00
2014,09,02,04,32,0.00
2014,09,02,04,33,0.00
2014,09,02,04,34,0.00
2014,09,02,04,35,0.00
2014,09,02,04,36,0.00
2014,09,02,04,37,0.00
2014,09,02,04,38,0.00
2014,09,02,04,39,0.00
2014,09,02,04,40,0.00
2014,09,02,04,41,0.00
2014,09,02,04,42,0.00
2014,09,02,04,43,0.00
2014,09,02,04,44,0.00
2014,09,02,04,45,0.00
2014,09,02,04,46,0.00
2014,09,02,04,47,0.00
2014,09,02,04,48,0.00
2014,09,02,04,49,0.00
2014,09,02,04,50,0.00
2014,09,02,04,51,0.00
2014,09,02,04,52,0.00
2014,09,02,04,53,0.00
2014,09,02,04,54,0.00
2014,09,02,04,55,0.00
2014,09,02,04,56,0.00
2014,09,02,04,57,0.00
2014,09,02,04,58,0.00
2014,09,02,04,59,0.00
2014,09,02,05,00,0.00
2014,09,02,05,01,0.00
2014,09,02,05,02,0.00
2014,09,02,05,03,0.00
2014,09,02,05,04,0.00
2014,09,02,05,05,0.00
2014,09,02,05,06,0.00
2014,09,02,05,07,0.00
2014,09,02,05,08,0.00
2014,09,02,05,09,0.00
2014,09,02,05,10,0.00
2014,09,02,05,11,0.00
2014,09,02,05,12,0.00
2014,09,02,05,13,0.00
2014,09,02,05,14,0.00
2014,09,02,05,15,0.00
2014,09,02,05,16,0.00
2014,09,02,05,17,0.00
2014,09,02,05,18,0.00
2014,09,02,05,19,0.00
2014,09,02,05,20,0.00
2014,09,02,05,21,0.00
2014,09,02,05,22,0.00
2014,09,02,05,23,0.00
2014,09,02,05,24,0.00
2014,09,02,05,25,0.00
2014,09,02,05,26,0.00
2014,09,02,05,27,0.00
2014,09,02,05,28,0.00
2014,09,02,05,29,0.00
2014,09,02,05,30,0.00
2014,09,02,05,31,0.00
2014,09,02,05,32,0.00
2014,09,02,05,33,0.00
2014,09,02,05,34,0.00
2014,09,02,05,35,0.00
2014,09,02,05,36,0.00
2014,09,02,05,37,0.00
2014,09,02,05,38,0.00
2014,09,02,05,39,0.00
2014,09,02,05,40,0.00
2014,09,02,05,41,0.00
2014,09,02,05,42,0.00
2014,09,02,05,43,0.00
2014,09,02,05,44,0.00
2014,09,02,05,45,0.00
2014,09,02,05,46,0.00
2014,09,02,05,47,0.00
2014,09,02,05,48,0.00
2014,09,02,05,49,0.00
2014,09,02,05,50,0.00
2014,09,02,05,51,0.00
2014,09,02,05,52,0.00
2014,09,02,05,53,0.00
2014,09,02,05,54,0.00
2014,09,02,05,55,0.00
2014,09,02,05,56,0.00
2014,09,02,05,57,0.00
2014,09,02,05,58,0.00
2014,09,02,05,59,0.00
2014,09,02,06,00,0.00
2014,09,02,06,01,0.00
2014,09,02,06,02,0.00
2014,09,02,06,03,0.00
2014,09,02,06,04,0.00
2014,09,02,06,05,0.00
2014,09,02,06,06,0.00
2014,09,02,06,07,0.00
2014,09,02,06,08,0.00
2014,09,02,06,09,0.00
2014,09,02,06,10,0.00
2014,09,02,06,11,0.00
2014,09,02,06,12,0.00
2014,09,02,06,13,0.00
2014,09,02,06,14,0.00
2014,09,02,06,15,0.00
2014,09,02,06,16,0.00
2014,09,02,06,17,0.00
2014,09,02,06,18,0.00
2014,09,02,06,19,0.00
2014,09,02,06,20,0.00
2014,09,02,06,21,0.00
2014,09,02,06,22,0.00
2014,09,02,06,23,0.00
2014,09,02,06,24,0.00
2014,09,02,06,25,0.00
2014,09,02,06,26,0.00
2014,09,02,06,27,0.00
2014,09,02,06,28,0.00
2014,09,02,06,29,0.00
2014,09,02,06,30,0.00
2014,09,02,06,31,0.00
2014,09,02,06,32,0.00
2014,09,02,06,33,0.00
2014,09,02,06,34,0.00
2014,09,02,06,35,0.00
2014,09,02,06,36,0.00
2014,09,02,06,37,0.00
2014,09,02,06,38,0.00
2014,09,02,06,39,0.00
2014,09,02,06,40,0.00
2014,09,02,06,41,0.00
2014,09,02,06,42,0.20
2014,09,02,06,43,5.00
2014,09,02,06,44,5.00
2014,09,02,06,45,5.00
2014,09,02,06,46,6.30
2014,09,02,06,47,7.00
2014,09,02,06,48,8.80
2014,09,02,06,49,9.40
2014,09,02,06,50,11.00
2014,09,02,06,51,11.50
2014,09,02,06,52,12.00
2014,09,02,06,53,12.00
2014,09,02,06,54,13.90
2014,09,02,06,55,14.00
2014,09,02,06,56,14.80
2014,09,02,06,57,16.00
2014,09,02,06,58,17.30
2014,09,02,06,59,18.00
2014,09,02,07,00,18.90
2014,09,02,07,01,19.50
2014,09,02,07,02,21.00
2014,09,02,07,03,23.20
2014,09,02,07,04,25.70
2014,09,02,07,05,31.10
2014,09,02,07,06,35.40
2014,09,02,07,07,39.30
2014,09,02,07,08,40.00
2014,09,02,07,09,40.00
2014,09,02,07,10,39.30
2014,09,02,07,11,37.30
2014,09,02,07,12,33.00
2014,09,02,07,13,34.10
2014,09,02,07,14,38.30
2014,09,02,07,15,43.50
2014,09,02,07,16,48.20
2014,09,02,07,17,53.50
2014,09,02,07,18,54.40
2014,09,02,07,19,57.40
2014,09,02,07,20,59.10
2014,09,02,07,21,60.40
2014,09,02,07,22,65.70
2014,09,02,07,23,82.00
2014,09,02,07,24,97.00
2014,09,02,07,25,105.00
2014,09,02,07,26,105.00
2014,09,02,07,27,104.30
2014,09,02,07,28,104.00
2014,09,02,07,29,104.00
2014,09,02,07,30,104.00
2014,09,02,07,31,104.00
2014,09,02,07,32,91.50
2014,09,02,07,33,66.70
2014,09,02,07,34,54.50
2014,09,02,07,35,56.20
2014,09,02,07,36,60.40
2014,09,02,07,37,62.30
2014,09,02,07,38,64.10
2014,09,02,07,39,65.00
2014,09,02,07,40,63.40
2014,09,02,07,41,64.90
2014,09,02,07,42,65.50
2014,09,02,07,43,67.70
2014,09,02,07,44,69.60
2014,09,02,07,45,71.40
2014,09,02,07,46,72.00
2014,09,02,07,47,72.00
2014,09,02,07,48,72.00
2014,09,02,07,49,72.00
2014,09,02,07,50,73.10
2014,09,02,07,51,74.00
2014,09,02,07,52,75.70
2014,09,02,07,53,77.30
2014,09,02,07,54,79.60
2014,09,02,07,55,81.80
2014,09,02,07,56,83.00
2014,09,02,07,57,81.50
2014,09,02,07,58,81.00
2014,09,02,07,59,81.00
2014,09,02,08,00,81.00
2014,09,02,08,01,79.20
2014,09,02,08,02,77.00
2014,09,02,08,03,76.20
2014,09,02,08,04,76.00
2014,09,02,08,05,76.20
2014,09,02,08,06,78.40
2014,09,02,08,07,84.30
2014,09,02,08,08,91.00
2014,09,02,08,09,98.20
2014,09,02,08,10,103.80
2014,09,02,08,11,104.80
2014,09,02,08,12,102.60
2014,09,02,08,13,97.40
2014,09,02,08,14,91.80
2014,09,02,08,15,85.20
2014,09,02,08,16,80.90
2014,09,02,08,17,76.80
2014,09,02,08,18,75.30
2014,09,02,08,19,73.00
2014,09,02,08,20,70.70
2014,09,02,08,21,69.20
2014,09,02,08,22,66.90
2014,09,02,08,23,65.00
2014,09,02,08,24,65.00
2014,09,02,08,25,65.00
2014,09,02,08,26,66.40
2014,09,02,08,27,67.00
2014,09,02,08,28,68.90
2014,09,02,08,29,69.00
2014,09,02,08,30,69.00
2014,09,02,08,31,69.00
2014,09,02,08,32,69.00
2014,09,02,08,33,69.00
2014,09,02,08,34,68.70
2014,09,02,08,35,67.00
2014,09,02,08,36,67.00
2014,09,02,08,37,67.00
2014,09,02,08,38,68.40
2014,09,02,08,39,69.00
2014,09,02,08,40,69.00
2014,09,02,08,41,69.00
2014,09,02,08,42,69.00
2014,09,02,08,43,69.00
2014,09,02,08,44,69.00
2014,09,02,08,45,69.10
2014,09,02,08,46,70.00
2014,09,02,08,47,70.60
2014,09,02,08,48,72.90
2014,09,02,08,49,75.30
2014,09,02,08,50,76.00
2014,09,02,08,51,77.00
2014,09,02,08,52,79.40
2014,09,02,08,53,81.70
2014,09,02,08,54,84.50
2014,09,02,08,55,88.50
2014,09,02,08,56,92.40
2014,09,02,08,57,95.00
2014,09,02,08,58,97.00
2014,09,02,08,59,96.30
2014,09,02,09,00,94.00
2014,09,02,09,01,91.60
2014,09,02,09,02,90.20
2014,09,02,09,03,90.10
2014,09,02,09,04,91.50
2014,09,02,09,05,95.00
2014,09,02,09,06,102.90
2014,09,02,09,07,111.80
2014,09,02,09,08,121.20
2014,09,02,09,09,133.40
2014,09,02,09,10,147.70
2014,09,02,09,11,162.40
2014,09,02,09,12,174.80
2014,09,02,09,13,207.70
2014,09,02,09,14,204.70
2014,09,02,09,15,202.20
2014,09,02,09,16,215.80
2014,09,02,09,17,219.20
2014,09,02,09,18,216.80
2014,09,02,09,19,221.20
2014,09,02,09,20,256.50
2014,09,02,09,21,242.00
2014,09,02,09,22,299.80
2014,09,02,09,23,388.80
2014,09,02,09,24,402.50
2014,09,02,09,25,341.00
2014,09,02,09,26,265.50
2014,09,02,09,27,216.00
2014,09,02,09,28,198.10
2014,09,02,09,29,158.00
2014,09,02,09,30,145.30
2014,09,02,09,31,139.80
2014,09,02,09,32,144.30
2014,09,02,09,33,157.00
2014,09,02,09,34,167.10
2014,09,02,09,35,172.50
2014,09,02,09,36,175.30
2014,09,02,09,37,177.60
2014,09,02,09,38,178.00
2014,09,02,09,39,178.00
2014,09,02,09,40,179.20
2014,09,02,09,41,183.20
2014,09,02,09,42,189.80
2014,09,02,09,43,196.00
2014,09,02,09,44,198.60
2014,09,02,09,45,217.50
2014,09,02,09,46,209.60
2014,09,02,09,47,172.70
2014,09,02,09,48,164.20
2014,09,02,09,49,151.20
2014,09,02,09,50,143.90
2014,09,02,09,51,142.50
2014,09,02,09,52,144.80
2014,09,02,09,53,144.80
2014,09,02,09,54,140.50
2014,09,02,09,55,132.70
2014,09,02,09,56,126.40
2014,09,02,09,57,122.10
2014,09,02,09,58,119.10
2014,09,02,09,59,115.70
2014,09,02,10,00,113.30
2014,09,02,10,01,113.00
2014,09,02,10,02,117.80
2014,09,02,10,03,128.20
2014,09,02,10,04,139.90
2014,09,02,10,05,153.60
2014,09,02,10,06,166.20
2014,09,02,10,07,173.50
2014,09,02,10,08,174.00
2014,09,02,10,09,173.10
2014,09,02,10,10,167.40
2014,09,02,10,11,161.20
2014,09,02,10,12,156.80
2014,09,02,10,13,156.00
2014,09,02,10,14,156.80
2014,09,02,10,15,161.10
2014,09,02,10,16,164.00
2014,09,02,10,17,165.00
2014,09,02,10,18,166.50
2014,09,02,10,19,172.40
2014,09,02,10,20,179.70
2014,09,02,10,21,186.80
2014,09,02,10,22,190.10
2014,09,02,10,23,196.60
2014,09,02,10,24,203.20
2014,09,02,10,25,203.30
2014,09,02,10,26,195.70
2014,09,02,10,27,189.60
2014,09,02,10,28,183.40
2014,09,02,10,29,177.80
2014,09,02,10,30,170.40
2014,09,02,10,31,164.70
2014,09,02,10,32,161.40
2014,09,02,10,33,159.20
2014,09,02,10,34,156.40
2014,09,02,10,35,150.80
2014,09,02,10,36,142.70
2014,09,02,10,37,136.60
2014,09,02,10,38,134.30
2014,09,02,10,39,137.70
2014,09,02,10,40,147.90
2014,09,02,10,41,162.80
2014,09,02,10,42,176.50
2014,09,02,10,43,180.70
2014,09,02,10,44,178.70
2014,09,02,10,45,176.10
2014,09,02,10,46,175.20
2014,09,02,10,47,181.20
2014,09,02,10,48,196.00
2014,09,02,10,49,205.20
2014,09,02,10,50,202.70
2014,09,02,10,51,205.40
2014,09,02,10,52,209.40
2014,09,02,10,53,211.00
2014,09,02,10,54,211.00
2014,09,02,10,55,211.00
2014,09,02,10,56,210.30
2014,09,02,10,57,212.30
2014,09,02,10,58,223.80
2014,09,02,10,59,237.00
2014,09,02,11,00,239.00
2014,09,02,11,01,232.30
2014,09,02,11,02,203.00
2014,09,02,11,03,205.90
2014,09,02,11,04,223.80
2014,09,02,11,05,233.00
2014,09,02,11,06,278.40
2014,09,02,11,07,360.00
2014,09,02,11,08,360.00
2014,09,02,11,09,360.00
2014,09,02,11,10,395.00
2014,09,02,11,11,437.80
2014,09,02,11,12,390.60
2014,09,02,11,13,355.50
2014,09,02,11,14,340.80
2014,09,02,11,15,342.60
2014,09,02,11,16,350.90
2014,09,02,11,17,347.10
2014,09,02,11,18,311.50
2014,09,02,11,19,267.60
2014,09,02,11,20,241.30
2014,09,02,11,21,229.00
2014,09,02,11,22,227.00
2014,09,02,11,23,223.40
2014,09,02,11,24,215.00
2014,09,02,11,25,211.90
2014,09,02,11,26,217.10
2014,09,02,11,27,224.90
2014,09,02,11,28,232.20
2014,09,02,11,29,238.90
2014,09,02,11,30,249.50
2014,09,02,11,31,261.00
2014,09,02,11,32,282.40
2014,09,02,11,33,294.00
2014,09,02,11,34,288.40
2014,09,02,11,35,290.70
2014,09,02,11,36,300.00
2014,09,02,11,37,274.60
2014,09,02,11,38,272.00
2014,09,02,11,39,282.40
2014,09,02,11,40,304.60
2014,09,02,11,41,302.00
2014,09,02,11,42,301.10
2014,09,02,11,43,317.40
2014,09,02,11,44,338.40
2014,09,02,11,45,355.10
2014,09,02,11,46,357.50
2014,09,02,11,47,357.00
2014,09,02,11,48,364.80
2014,09,02,11,49,382.00
2014,09,02,11,50,330.40
2014,09,02,11,51,278.40
2014,09,02,11,52,273.40
2014,09,02,11,53,304.40
2014,09,02,11,54,292.40
2014,09,02,11,55,282.20
2014,09,02,11,56,278.00
2014,09,02,11,57,278.00
2014,09,02,11,58,272.00
2014,09,02,11,59,254.20
2014,09,02,12,00,248.40
2014,09,02,12,01,244.90
2014,09,02,12,02,246.00
2014,09,02,12,03,244.60
2014,09,02,12,04,239.80
2014,09,02,12,05,242.00
2014,09,02,12,06,247.30
2014,09,02,12,07,244.10
2014,09,02,12,08,232.80
2014,09,02,12,09,234.80
2014,09,02,12,10,251.10
2014,09,02,12,11,249.20
2014,09,02,12,12,245.30
2014,09,02,12,13,240.50
2014,09,02,12,14,228.20
2014,09,02,12,15,210.20
2014,09,02,12,16,197.20
2014,09,02,12,17,191.60
2014,09,02,12,18,187.40
2014,09,02,12,19,179.50
2014,09,02,12,20,170.10
2014,09,02,12,21,159.90
2014,09,02,12,22,156.20
2014,09,02,12,23,157.20
2014,09,02,12,24,153.40
2014,09,02,12,25,149.90
2014,09,02,12,26,149.00
2014,09,02,12,27,150.60
2014,09,02,12,28,151.20
2014,09,02,12,29,154.80
2014,09,02,12,30,164.80
2014,09,02,12,31,178.40
2014,09,02,12,32,190.00
2014,09,02,12,33,202.30
2014,09,02,12,34,215.10
2014,09,02,12,35,233.90
2014,09,02,12,36,244.30
2014,09,02,12,37,241.10
2014,09,02,12,38,231.40
2014,09,02,12,39,221.80
2014,09,02,12,40,221.00
2014,09,02,12,41,221.00
2014,09,02,12,42,220.60
2014,09,02,12,43,215.90
2014,09,02,12,44,206.70
2014,09,02,12,45,196.40
2014,09,02,12,46,181.40
2014,09,02,12,47,161.00
2014,09,02,12,48,139.90
2014,09,02,12,49,121.20
2014,09,02,12,50,107.80
2014,09,02,12,51,98.60
2014,09,02,12,52,95.40
2014,09,02,12,53,98.10
2014,09,02,12,54,99.10
2014,09,02,12,55,98.00
2014,09,02,12,56,98.00
2014,09,02,12,57,97.90
2014,09,02,12,58,97.60
2014,09,02,12,59,102.60
2014,09,02,13,00,115.00
2014,09,02,13,01,132.60
2014,09,02,13,02,148.60
2014,09,02,13,03,155.50
2014,09,02,13,04,146.80
2014,09,02,13,05,126.60
2014,09,02,13,06,105.20
2014,09,02,13,07,91.20
2014,09,02,13,08,84.00
2014,09,02,13,09,76.70
2014,09,02,13,10,73.50
2014,09,02,13,11,72.00
2014,09,02,13,12,74.10
2014,09,02,13,13,77.90
2014,09,02,13,14,80.60
2014,09,02,13,15,80.80
2014,09,02,13,16,78.50
2014,09,02,13,17,74.20
2014,09,02,13,18,64.20
2014,09,02,13,19,52.30
2014,09,02,13,20,38.80
2014,09,02,13,21,28.90
2014,09,02,13,22,21.80
2014,09,02,13,23,18.50
2014,09,02,13,24,18.00
2014,09,02,13,25,18.00
2014,09,02,13,26,18.90
2014,09,02,13,27,24.00
2014,09,02,13,28,30.20
2014,09,02,13,29,37.20
2014,09,02,13,30,42.40
2014,09,02,13,31,46.20
2014,09,02,13,32,42.20
2014,09,02,13,33,33.60
2014,09,02,13,34,27.40
2014,09,02,13,35,27.00
2014,09,02,13,36,28.00
2014,09,02,13,37,29.60
2014,09,02,13,38,34.80
2014,09,02,13,39,41.30
2014,09,02,13,40,50.20
2014,09,02,13,41,63.20
2014,09,02,13,42,76.60
2014,09,02,13,43,89.00
2014,09,02,13,44,98.60
2014,09,02,13,45,107.00
2014,09,02,13,46,107.00
2014,09,02,13,47,109.20
2014,09,02,13,48,112.40
2014,09,02,13,49,111.40
2014,09,02,13,50,103.40
2014,09,02,13,51,93.70
2014,09,02,13,52,89.20
2014,09,02,13,53,86.90
2014,09,02,13,54,83.90
2014,09,02,13,55,83.80
2014,09,02,13,56,86.30
2014,09,02,13,57,88.90
2014,09,02,13,58,91.80
2014,09,02,13,59,95.30
2014,09,02,14,00,104.00
2014,09,02,14,01,118.80
2014,09,02,14,02,127.70
2014,09,02,14,03,129.20
2014,09,02,14,04,134.90
2014,09,02,14,05,140.10
2014,09,02,14,06,135.80
2014,09,02,14,07,130.40
2014,09,02,14,08,132.80
2014,09,02,14,09,137.70
2014,09,02,14,10,137.10
2014,09,02,14,11,136.20
2014,09,02,14,12,143.60
2014,09,02,14,13,156.80
2014,09,02,14,14,169.30
2014,09,02,14,15,170.30
2014,09,02,14,16,170.50
2014,09,02,14,17,177.70
2014,09,02,14,18,188.20
2014,09,02,14,19,185.40
2014,09,02,14,20,167.80
2014,09,02,14,21,154.70
2014,09,02,14,22,144.00
2014,09,02,14,23,129.40
2014,09,02,14,24,117.80
2014,09,02,14,25,113.50
2014,09,02,14,26,122.00
2014,09,02,14,27,132.00
2014,09,02,14,28,134.50
2014,09,02,14,29,128.10
2014,09,02,14,30,123.40
2014,09,02,14,31,111.20
2014,09,02,14,32,87.20
2014,09,02,14,33,73.20
2014,09,02,14,34,69.00
2014,09,02,14,35,67.60
2014,09,02,14,36,62.80
2014,09,02,14,37,53.30
2014,09,02,14,38,46.20
2014,09,02,14,39,45.30
2014,09,02,14,40,48.20
2014,09,02,14,41,50.40
2014,09,02,14,42,52.80
2014,09,02,14,43,54.30
2014,09,02,14,44,55.40
2014,09,02,14,45,52.70
2014,09,02,14,46,48.60
2014,09,02,14,47,44.80
2014,09,02,14,48,44.00
2014,09,02,14,49,43.60
2014,09,02,14,50,41.00
2014,09,02,14,51,37.10
2014,09,02,14,52,32.00
2014,09,02,14,53,28.50
2014,09,02,14,54,28.00
2014,09,02,14,55,28.00
2014,09,02,14,56,27.40
2014,09,02,14,57,25.50
2014,09,02,14,58,22.50
2014,09,02,14,59,18.70
2014,09,02,15,00,14.10
2014,09,02,15,01,11.80
2014,09,02,15,02,10.30
2014,09,02,15,03,9.00
2014,09,02,15,04,9.00
2014,09,02,15,05,9.00
2014,09,02,15,06,9.20
2014,09,02,15,07,11.00
2014,09,02,15,08,11.00
2014,09,02,15,09,12.60
2014,09,02,15,10,15.30
2014,09,02,15,11,16.00
2014,09,02,15,12,16.00
2014,09,02,15,13,16.50
2014,09,02,15,14,18.00
2014,09,02,15,15,18.00
2014,09,02,15,16,18.00
2014,09,02,15,17,18.80
2014,09,02,15,18,19.20
2014,09,02,15,19,21.00
2014,09,02,15,20,21.80
2014,09,02,15,21,23.00
2014,09,02,15,22,24.40
2014,09,02,15,23,25.90
2014,09,02,15,24,26.30
2014,09,02,15,25,28.60
2014,09,02,15,26,30.90
2014,09,02,15,27,32.00
2014,09,02,15,28,32.80
2014,09,02,15,29,34.90
2014,09,02,15,30,37.30
2014,09,02,15,31,39.30
2014,09,02,15,32,40.90
2014,09,02,15,33,44.40
2014,09,02,15,34,48.20
2014,09,02,15,35,52.70
2014,09,02,15,36,56.80
2014,09,02,15,37,61.80
2014,09,02,15,38,67.40
2014,09,02,15,39,73.90
2014,09,02,15,40,82.30
2014,09,02,15,41,93.90
2014,09,02,15,42,111.00
2014,09,02,15,43,111.00
2014,09,02,15,44,394.20
2014,09,02,15,45,652.20
2014,09,02,15,46,656.40
2014,09,02,15,47,658.80
2014,09,02,15,48,658.20
2014,09,02,15,49,654.50
2014,09,02,15,50,648.20
2014,09,02,15,51,638.20
2014,09,02,15,52,627.80
2014,09,02,15,53,618.00
2014,09,02,15,54,608.20
2014,09,02,15,55,600.20
2014,09,02,15,56,593.70
2014,09,02,15,57,588.50
2014,09,02,15,58,588.70
2014,09,02,15,59,588.80
2014,09,02,16,00,586.40
2014,09,02,16,01,584.50
2014,09,02,16,02,584.00
2014,09,02,16,03,586.10
2014,09,02,16,04,591.20
2014,09,02,16,05,588.20
2014,09,02,16,06,612.00
2014,09,02,16,07,422.10
2014,09,02,16,08,198.10
2014,09,02,16,09,187.90
2014,09,02,16,10,162.90
2014,09,02,16,11,139.00
2014,09,02,16,12,124.20
2014,09,02,16,13,113.10
2014,09,02,16,14,101.60
2014,09,02,16,15,92.70
2014,09,02,16,16,84.10
2014,09,02,16,17,78.60
2014,09,02,16,18,79.10
2014,09,02,16,19,84.40
2014,09,02,16,20,82.80
2014,09,02,16,21,73.80
2014,09,02,16,22,67.10
2014,09,02,16,23,63.50
2014,09,02,16,24,67.60
2014,09,02,16,25,74.00
2014,09,02,16,26,79.40
2014,09,02,16,27,89.00
2014,09,02,16,28,107.30
2014,09,02,16,29,142.20
2014,09,02,16,30,172.10
2014,09,02,16,31,176.40
2014,09,02,16,32,164.20
2014,09,02,16,33,146.50
2014,09,02,16,34,127.70
2014,09,02,16,35,128.30
2014,09,02,16,36,144.90
2014,09,02,16,37,158.50
2014,09,02,16,38,173.50
2014,09,02,16,39,190.60
2014,09,02,16,40,212.90
2014,09,02,16,41,230.80
2014,09,02,16,42,240.00
2014,09,02,16,43,265.20
2014,09,02,16,44,281.00
2014,09,02,16,45,400.10
2014,09,02,16,46,396.50
2014,09,02,16,47,271.00
2014,09,02,16,48,419.30
2014,09,02,16,49,572.40
2014,09,02,16,50,550.70
2014,09,02,16,51,580.70
2014,09,02,16,52,659.00
2014,09,02,16,53,569.40
2014,09,02,16,54,403.00
2014,09,02,16,55,403.00
2014,09,02,16,56,403.00
2014,09,02,16,57,429.10
2014,09,02,16,58,388.00
2014,09,02,16,59,223.00
2014,09,02,17,00,179.80
2014,09,02,17,01,132.20
2014,09,02,17,02,184.10
2014,09,02,17,03,238.20
2014,09,02,17,04,181.40
2014,09,02,17,05,130.80
2014,09,02,17,06,117.70
2014,09,02,17,07,111.70
2014,09,02,17,08,113.40
2014,09,02,17,09,113.70
2014,09,02,17,10,108.80
2014,09,02,17,11,98.70
2014,09,02,17,12,91.50
2014,09,02,17,13,90.00
2014,09,02,17,14,90.00
2014,09,02,17,15,83.80
2014,09,02,17,16,77.80
2014,09,02,17,17,71.90
2014,09,02,17,18,65.70
2014,09,02,17,19,59.50
2014,09,02,17,20,54.60
2014,09,02,17,21,52.10